Location: Bruderhein
(53.8035°N, 112.9265°W)
Time: 01:55:33
(UTC+00:00)

STRAND 1 - Pass Details

Date: 10 April 2023
Orbit: 767 x 779 km, 98.4° (Epoch: 31 May)

Event Time Altitude Azimuth Distance (km) Brightness Sun altitude
Rises 04:55:00 0° 6° (N) 3,253 ? -19.9°
Reaches altitude 10° 04:58:47 10° 337° (NNW) 2,321 ? -20.3°
Maximum altitude 05:00:41 12° 315° (NW) 2,171 ? -20.5°
Drops below altitude 10° 05:02:36 10° 293° (WNW) 2,316 ? -20.7°
Sets 05:06:23 0° 264° (W) 3,239 ? -21.0°
